When you browse on this site, cookies collect data to enhance your experience and personalize the content and advertising you see.
Visit our Privacy Policy to learn more. By continuing to use the site, you agree to this use of cookies and data.
  • Em Portugal
  • Lista de países
  • Para 7 dias
  • Temperatura da água
  • Mapas de satélite
  • Mapa do tempo
  • Widgets de tempo
  • user-avatar
    Iniciar Sessão

    Previsão horária em Nikitino

    Hoje, 20 Fevereiro, Quarta-feira

    Tempo Temperatura Precipitação Vento Pressão Humidade
    00:00 -2°C° 0 mm 6 m/s 737 mmHg 94%
    01:00 -2°C° 0 mm 6 m/s 736 mmHg 94%
    02:00 -2°C° 0 mm 6 m/s 736 mmHg 95%
    03:00 -1°C° 0 mm 5 m/s 736 mmHg 95%
    04:00 -1°C° 0 mm 5 m/s 735 mmHg 94%
    05:00 -1°C° 0 mm 4 m/s 735 mmHg 94%
    06:00 -2°C° 0 mm 4 m/s 735 mmHg 94%
    07:00 -2°C° 0 mm 4 m/s 735 mmHg 94%
    08:00 -2°C° 0 mm 4 m/s 735 mmHg 94%
    09:00 -2°C° 0.1 mm 5 m/s 735 mmHg 96%
    10:00 -1°C° 0.1 mm 5 m/s 735 mmHg 97%
    11:00 -2°C° 0.1 mm 6 m/s 735 mmHg 99%
    12:00 -2°C° 0 mm 6 m/s 734 mmHg 98%
    13:00 -1°C° 0 mm 6 m/s 734 mmHg 98%
    14:00 -1°C° 0 mm 6 m/s 734 mmHg 98%
    15:00 -1°C° 0.1 mm 6 m/s 734 mmHg 96%
    16:00 -1°C° 0.1 mm 7 m/s 734 mmHg 94%
    17:00 -1°C° 0.1 mm 7 m/s 733 mmHg 91%
    18:00 -1°C° 0.3 mm 7 m/s 733 mmHg 91%
    19:00 -1°C° 0.3 mm 7 m/s 733 mmHg 91%
    20:00 -2°C° 0.3 mm 7 m/s 733 mmHg 91%
    21:00 -3°C° 0.1 mm 7 m/s 733 mmHg 87%
    22:00 -6°C° 0.1 mm 7 m/s 734 mmHg 83%
    23:00 -8°C° 0.1 mm 6 m/s 734 mmHg 79%

    Amanhã, 21 Fevereiro, Quinta-feira

    Tempo Temperatura Precipitação Vento Pressão Humidade
    00:00 -8°C° 0 mm 7 m/s 734 mmHg 79%
    01:00 -8°C° 0 mm 7 m/s 735 mmHg 79%
    02:00 -9°C° 0 mm 7 m/s 735 mmHg 79%
    03:00 -9°C° 0 mm 7 m/s 736 mmHg 79%
    04:00 -9°C° 0 mm 7 m/s 736 mmHg 79%
    05:00 -11°C° 0 mm 7 m/s 736 mmHg 79%
    06:00 -11°C° 0 mm 7 m/s 737 mmHg 78%
    07:00 -11°C° 0 mm 7 m/s 737 mmHg 78%
    08:00 -11°C° 0 mm 7 m/s 738 mmHg 78%
    09:00 -11°C° 0 mm 7 m/s 738 mmHg 77%
    10:00 -10°C° 0 mm 8 m/s 739 mmHg 76%
    11:00 -8°C° 0 mm 8 m/s 739 mmHg 75%
    12:00 -8°C° 0.1 mm 8 m/s 740 mmHg 75%
    13:00 -8°C° 0.1 mm 8 m/s 740 mmHg 75%
    14:00 -8°C° 0.1 mm 7 m/s 741 mmHg 75%
    15:00 -8°C° 0 mm 7 m/s 741 mmHg 76%
    16:00 -8°C° 0 mm 6 m/s 742 mmHg 77%
    17:00 -8°C° 0 mm 5 m/s 742 mmHg 78%
    18:00 -8°C° 0 mm 5 m/s 743 mmHg 79%
    19:00 -10°C° 0 mm 5 m/s 743 mmHg 81%
    20:00 -11°C° 0 mm 5 m/s 743 mmHg 82%
    21:00 -10°C° 0 mm 4 m/s 744 mmHg 82%
    22:00 -11°C° 0 mm 4 m/s 744 mmHg 82%
    23:00 -12°C° 0 mm 4 m/s 744 mmHg 82%

    Depois de amanhã, 22 Fevereiro, Sexta-feira

    Tempo Temperatura Precipitação Vento Pressão Humidade
    00:00 -12°C° 0 mm 4 m/s 745 mmHg 83%
    01:00 -14°C° 0 mm 4 m/s 745 mmHg 83%
    02:00 -14°C° 0 mm 4 m/s 746 mmHg 84%
    03:00 -14°C° 0 mm 4 m/s 746 mmHg 83%
    04:00 -14°C° 0 mm 4 m/s 747 mmHg 83%
    05:00 -15°C° 0 mm 5 m/s 747 mmHg 83%
    06:00 -15°C° 0 mm 5 m/s 748 mmHg 82%
    07:00 -15°C° 0 mm 5 m/s 748 mmHg 80%
    08:00 -16°C° 0 mm 6 m/s 749 mmHg 79%
    09:00 -15°C° 0 mm 6 m/s 749 mmHg 76%
    10:00 -14°C° 0 mm 7 m/s 749 mmHg 73%
    11:00 -13°C° 0 mm 8 m/s 750 mmHg 70%
    12:00 -13°C° 0 mm 8 m/s 750 mmHg 70%
    13:00 -12°C° 0 mm 8 m/s 750 mmHg 70%
    14:00 -12°C° 0 mm 8 m/s 750 mmHg 70%
    15:00 -12°C° 0 mm 8 m/s 751 mmHg 71%
    16:00 -13°C° 0 mm 7 m/s 751 mmHg 72%
    17:00 -12°C° 0 mm 6 m/s 752 mmHg 73%
    18:00 -12°C° 0.1 mm 6 m/s 752 mmHg 76%
    19:00 -12°C° 0.1 mm 6 m/s 752 mmHg 78%
    20:00 -12°C° 0.1 mm 6 m/s 753 mmHg 81%
    21:00 -13°C° 0 mm 5 m/s 753 mmHg 80%
    22:00 -13°C° 0 mm 5 m/s 753 mmHg 79%
    23:00 -14°C° 0 mm 5 m/s 754 mmHg 79%

    23 Fevereiro, Sábado

    Tempo Temperatura Precipitação Vento Pressão Humidade
    00:00 -14°C° 0 mm 5 m/s 754 mmHg 80%
    01:00 -15°C° 0 mm 5 m/s 755 mmHg 81%
    02:00 -15°C° 0 mm 5 m/s 755 mmHg 82%
    03:00 -15°C° 0 mm 5 m/s 755 mmHg 83%
    04:00 -15°C° 0 mm 4 m/s 756 mmHg 85%
    05:00 -15°C° 0 mm 4 m/s 756 mmHg 86%
    06:00 -16°C° 0 mm 4 m/s 756 mmHg 87%
    07:00 -16°C° 0 mm 4 m/s 756 mmHg 87%
    08:00 -16°C° 0 mm 4 m/s 757 mmHg 88%
    09:00 -15°C° 0 mm 4 m/s 757 mmHg 85%
    10:00 -14°C° 0 mm 5 m/s 757 mmHg 83%
    11:00 -13°C° 0 mm 5 m/s 758 mmHg 81%
    12:00 -11°C° 0 mm 4 m/s 757 mmHg 79%
    13:00 -11°C° 0 mm 4 m/s 757 mmHg 76%
    14:00 -10°C° 0 mm 4 m/s 757 mmHg 74%
    15:00 -10°C° 0 mm 4 m/s 757 mmHg 76%
    16:00 -9°C° 0 mm 3 m/s 757 mmHg 78%
    17:00 -10°C° 0 mm 3 m/s 757 mmHg 80%
    18:00 -10°C° 0 mm 3 m/s 757 mmHg 81%
    19:00 -10°C° 0 mm 3 m/s 757 mmHg 82%
    20:00 -9°C° 0 mm 2 m/s 757 mmHg 83%
    21:00 -9°C° 0 mm 2 m/s 757 mmHg 84%
    22:00 -9°C° 0 mm 2 m/s 756 mmHg 84%
    23:00 -8°C° 0 mm 2 m/s 756 mmHg 85%

    24 Fevereiro, Domingo

    Tempo Temperatura Precipitação Vento Pressão Humidade
    00:00 -8°C° 0 mm 2 m/s 756 mmHg 87%
    01:00 -8°C° 0 mm 2 m/s 756 mmHg 89%
    02:00 -7°C° 0 mm 1 m/s 756 mmHg 90%
    03:00 -8°C° 0.1 mm 2 m/s 755 mmHg 92%
    04:00 -8°C° 0.1 mm 2 m/s 755 mmHg 93%
    05:00 -8°C° 0.1 mm 2 m/s 754 mmHg 95%
    06:00 -7°C° 0.2 mm 2 m/s 754 mmHg 95%
    07:00 -7°C° 0.2 mm 2 m/s 754 mmHg 95%
    08:00 -7°C° 0.2 mm 2 m/s 754 mmHg 95%
    09:00 -6°C° 0 mm 2 m/s 754 mmHg 94%
    10:00 -4°C° 0 mm 1 m/s 755 mmHg 92%
    11:00 -3°C° 0 mm 1 m/s 755 mmHg 91%
    12:00 -2°C° 0 mm 1 m/s 755 mmHg 90%
    13:00 -2°C° 0 mm 1 m/s 755 mmHg 89%
    14:00 -1°C° 0 mm 1 m/s 755 mmHg 89%
    15:00 -1°C° 0 mm 1 m/s 755 mmHg 91%
    16:00 -1°C° 0 mm 1 m/s 755 mmHg 92%
    17:00 -1°C° 0 mm 1 m/s 755 mmHg 94%
    18:00 -1°C° 0 mm 1 m/s 755 mmHg 95%
    19:00 -2°C° 0 mm 1 m/s 755 mmHg 95%
    20:00 -2°C° 0 mm 1 m/s 755 mmHg 95%
    21:00 -2°C° 0 mm 1 m/s 755 mmHg 96%
    22:00 -2°C° 0 mm 1 m/s 755 mmHg 96%
    23:00 -2°C° 0 mm 1 m/s 755 mmHg 96%

    25 Fevereiro, Segunda-feira

    Tempo Temperatura Precipitação Vento Pressão Humidade
    00:00 -1°C° 0 mm 1 m/s 755 mmHg 96%
    01:00 -1°C° 0 mm 1 m/s 754 mmHg 96%
    02:00 -1°C° 0 mm 1 m/s 754 mmHg 96%
    03:00 -1°C° 0 mm 1 m/s 754 mmHg 96%
    04:00 -1°C° 0 mm 1 m/s 753 mmHg 96%
    05:00 -1°C° 0 mm 1 m/s 753 mmHg 96%
    06:00 -3°C° 0 mm 2 m/s 753 mmHg 96%
    07:00 -3°C° 0 mm 2 m/s 752 mmHg 96%
    08:00 -3°C° 0 mm 2 m/s 752 mmHg 96%
    09:00 -4°C° 0 mm 3 m/s 752 mmHg 95%
    10:00 -2°C° 0 mm 3 m/s 751 mmHg 95%
    11:00 -2°C° 0 mm 3 m/s 751 mmHg 94%
    12:00 -1°C° 0.1 mm 3 m/s 750 mmHg 95%
    13:00 -1°C° 0.1 mm 3 m/s 750 mmHg 96%
    14:00 -1°C° 0.1 mm 3 m/s 749 mmHg 97%
    15:00 -2°C° 0 mm 4 m/s 749 mmHg 94%
    16:00 -2°C° 0 mm 4 m/s 749 mmHg 92%
    17:00 -2°C° 0 mm 5 m/s 748 mmHg 90%
    18:00 -2°C° 0 mm 5 m/s 748 mmHg 89%
    19:00 -2°C° 0 mm 5 m/s 748 mmHg 88%
    20:00 -2°C° 0 mm 5 m/s 748 mmHg 87%
    21:00 -3°C° 0 mm 4 m/s 748 mmHg 88%
    22:00 -3°C° 0 mm 4 m/s 748 mmHg 88%
    23:00 -4°C° 0 mm 4 m/s 748 mmHg 89%
    Mostrar mais